This is the latest recevied weather packets stored in our database for station/object N8QQQ. If no packets are shown the sender has not sent any weather packets the latest 10 day(s).
| Time | Temp. | Humidity | Pressure | Rain* | Wind** | Luminosity | Snow |
|---|---|---|---|---|---|---|---|
| 1777669009 | 3.89° C | 54% | 1016.8 hPa | 0 mm | - | 163 W/m² | - |
| 1777668403 | 3.33° C | 57% | 1016.8 hPa | 0 mm | - | 79 W/m² | - |
| 1777668099 | 3.33° C | 56% | 1017 hPa | 0 mm | - | 67 W/m² | - |
| 1777667796 | 3.33° C | 56% | 1016.8 hPa | 0 mm | - | 62 W/m² | - |
| 1777667494 | 3.33° C | 55% | 1016.7 hPa | 0 mm | - | 64 W/m² | - |
| 1777667190 | 3.33° C | 54% | 1017 hPa | 0 mm | - | 93 W/m² | - |
| 1777666887 | 3.33° C | 54% | 1016.8 hPa | 0 mm | - | 87 W/m² | - |
| 1777666584 | 3.33° C | 53% | 1017 hPa | 0 mm | - | 93 W/m² | - |
| 1777666280 | 3.33° C | 55% | 1017 hPa | 0 mm | - | 98 W/m² | - |
| 1777665977 | 3.33° C | 55% | 1016.8 hPa | 0 mm | - | 124 W/m² | - |
| 1777665373 | 2.78° C | 55% | 1016.8 hPa | 0 mm | - | 87 W/m² | - |
| 1777665068 | 2.78° C | 54% | 1017 hPa | 0 mm | - | 79 W/m² | - |
| 1777664157 | 3.33° C | 53% | 1016.8 hPa | 0 mm | - | 103 W/m² | - |
| 1777663856 | 3.33° C | 53% | 1016.7 hPa | 0 mm | - | 103 W/m² | - |
| 1777663551 | 2.78° C | 55% | 1016.8 hPa | 0 mm | - | 109 W/m² | - |
| 1777663249 | 2.78° C | 55% | 1016.8 hPa | 0 mm | - | 131 W/m² | - |
| 1777662946 | 3.33° C | 54% | 1017.1 hPa | 0 mm | - | 135 W/m² | - |
| 1777662644 | 3.33° C | 55% | 1016.8 hPa | 0 mm | - | 157 W/m² | - |
| 1777662339 | 3.33° C | 56% | 1016.8 hPa | 0 mm | - | 159 W/m² | - |
| 1777660515 | 2.78° C | 57% | 1016.6 hPa | 0 mm | - | 121 W/m² | - |
| 1777659605 | 2.78° C | 58% | 1016.7 hPa | 0 mm | - | 128 W/m² | - |
| 1777659302 | 2.78° C | 59% | 1017 hPa | 0 mm | - | 118 W/m² | - |
| 1777658999 | 2.78° C | 58% | 1016.7 hPa | 0 mm | - | 125 W/m² | - |
| 1777658392 | 2.78° C | 58% | 1016.7 hPa | 0 mm | - | 107 W/m² | - |
| 1777656270 | 2.22° C | 64% | 1016.7 hPa | 0 mm | - | 134 W/m² | - |
* Rain latest hour (hover to see other rain measurements)
** Current wind speed in m/s (hover to see current wind gust speed)